TimeMST,TemperatureF,Dew PointF,Humidity,Sea Level PressureIn,VisibilityMPH,Wind Direction,Wind SpeedMPH,Gust SpeedMPH,PrecipitationIn,Events,Conditions,WindDirDegrees,DateUTC
12:15 AM,10.4,8.6,92,29.87,10.0,Calm,Calm,-,N/A,,Scattered Clouds,0,2014-01-04 07:15:00
12:35 AM,10.4,-5.8,48,29.86,10.0,SW,3.5,-,N/A,,Partly Cloudy,230,2014-01-04 07:35:00
12:55 AM,10.4,6.8,85,29.85,9.0,SW,3.5,-,N/A,,Partly Cloudy,230,2014-01-04 07:55:00
1:15 AM,8.6,6.8,92,29.84,10.0,Calm,Calm,-,N/A,,Scattered Clouds,0,2014-01-04 08:15:00
1:35 AM,8.6,-7.6,48,29.84,10.0,Calm,Calm,-,N/A,,Clear,0,2014-01-04 08:35:00
1:55 AM,6.8,5.0,92,29.84,10.0,Calm,Calm,-,N/A,,Partly Cloudy,0,2014-01-04 08:55:00
2:15 AM,6.8,3.2,85,29.83,10.0,Calm,Calm,-,N/A,,Clear,0,2014-01-04 09:15:00
2:35 AM,8.6,-4.0,57,29.83,10.0,Calm,Calm,-,N/A,,Clear,0,2014-01-04 09:35:00
2:55 AM,6.8,3.2,85,29.82,9.0,Calm,Calm,-,N/A,,Partly Cloudy,0,2014-01-04 09:55:00
3:15 AM,5.0,-0.4,78,29.81,10.0,Calm,Calm,-,N/A,,Clear,0,2014-01-04 10:15:00
3:35 AM,6.8,-2.2,67,29.80,10.0,Calm,Calm,-,N/A,,Clear,0,2014-01-04 10:35:00
3:55 AM,8.6,3.2,79,29.78,10.0,Calm,Calm,-,N/A,,Clear,0,2014-01-04 10:55:00
4:15 AM,6.8,-0.4,72,29.79,10.0,Calm,Calm,-,N/A,,Partly Cloudy,0,2014-01-04 11:15:00
4:35 AM,5.0,-7.6,56,29.78,10.0,SSE,4.6,-,N/A,,Mostly Cloudy,160,2014-01-04 11:35:00
4:55 AM,8.6,8.6,100,29.78,10.0,Calm,Calm,-,N/A,,Mostly Cloudy,0,2014-01-04 11:55:00
5:15 AM,8.6,3.2,79,29.78,10.0,Calm,Calm,-,N/A,,Scattered Clouds,0,2014-01-04 12:15:00
5:35 AM,8.6,-9.4,44,29.78,10.0,Calm,Calm,-,N/A,,Mostly Cloudy,0,2014-01-04 12:35:00
5:55 AM,8.6,8.6,100,29.77,9.0,Calm,Calm,-,N/A,,Mostly Cloudy,0,2014-01-04 12:55:00
6:15 AM,10.4,8.6,92,29.77,10.0,NNE,3.5,-,N/A,,Mostly Cloudy,30,2014-01-04 13:15:00
6:35 AM,10.4,-5.8,48,29.77,10.0,South,4.6,-,N/A,,Mostly Cloudy,170,2014-01-04 13:35:00
6:55 AM,10.4,1.4,67,29.77,10.0,Calm,Calm,-,N/A,,Mostly Cloudy,0,2014-01-04 13:55:00
7:15 AM,12.2,12.2,100,29.78,5.0,Calm,Calm,-,N/A,,Overcast,0,2014-01-04 14:15:00
7:35 AM,12.2,10.4,92,29.78,1.5,SSE,6.9,-,N/A,,Overcast,160,2014-01-04 14:35:00
7:55 AM,12.2,5.0,73,29.78,1.2,South,3.5,-,N/A,,Overcast,170,2014-01-04 14:55:00
8:15 AM,19.4,8.6,63,29.77,5.0,SSW,6.9,-,N/A,,Mostly Cloudy,200,2014-01-04 15:15:00
8:35 AM,19.4,6.8,58,29.78,8.0,Calm,Calm,-,N/A,,Mostly Cloudy,0,2014-01-04 15:35:00
8:55 AM,24.8,17.6,74,29.79,0.8,WSW,13.8,17.3,N/A,,Overcast,250,2014-01-04 15:55:00
9:35 AM,28.4,26.6,93,29.76,10.0,SW,12.7,18.4,N/A,,Partly Cloudy,220,2014-01-04 16:35:00
9:55 AM,28.4,23.0,80,29.77,10.0,SW,11.5,18.4,N/A,,Mostly Cloudy,230,2014-01-04 16:55:00
10:15 AM,30.2,19.4,64,29.78,9.0,SW,12.7,17.3,N/A,,Overcast,230,2014-01-04 17:15:00
10:35 AM,28.4,17.6,64,29.77,10.0,SW,12.7,23.0,N/A,,Mostly Cloudy,230,2014-01-04 17:35:00
10:55 AM,28.4,15.8,59,29.75,10.0,WSW,18.4,23.0,N/A,,Partly Cloudy,240,2014-01-04 17:55:00
11:15 AM,28.4,15.8,59,29.75,7.0,SW,15.0,24.2,N/A,,Mostly Cloudy,230,2014-01-04 18:15:00
11:35 AM,28.4,15.8,59,29.74,9.0,SW,19.6,25.3,N/A,,Scattered Clouds,230,2014-01-04 18:35:00
11:55 AM,28.4,14.0,55,29.74,10.0,WSW,16.1,23.0,N/A,,Mostly Cloudy,240,2014-01-04 18:55:00
12:15 PM,28.4,14.0,55,29.74,10.0,West,17.3,24.2,N/A,,Overcast,260,2014-01-04 19:15:00
12:35 PM,26.6,15.8,64,29.75,10.0,WSW,15.0,24.2,N/A,,Overcast,240,2014-01-04 19:35:00
12:55 PM,26.6,15.8,64,29.74,7.0,West,19.6,33.4,N/A,,Mostly Cloudy,270,2014-01-04 19:55:00
1:15 PM,26.6,8.6,47,29.74,3.0,West,23.0,29.9,N/A,,Scattered Clouds,270,2014-01-04 20:15:00
1:35 PM,26.6,6.8,43,29.75,2.0,West,23.0,35.7,N/A,,Clear,260,2014-01-04 20:35:00
1:55 PM,26.6,10.4,51,29.76,5.0,West,19.6,36.8,N/A,,Clear,270,2014-01-04 20:55:00
2:15 PM,26.6,3.2,37,29.77,10.0,West,27.6,41.4,N/A,,Clear,280,2014-01-04 21:15:00
2:35 PM,26.6,8.6,47,29.79,10.0,WNW,23.0,28.8,N/A,,Clear,300,2014-01-04 21:35:00
2:55 PM,24.8,1.4,36,29.82,10.0,NW,16.1,31.1,N/A,,Partly Cloudy,310,2014-01-04 21:55:00
3:15 PM,21.2,6.8,54,29.84,10.0,NW,13.8,20.7,N/A,,Clear,310,2014-01-04 22:15:00
3:35 PM,19.4,10.4,68,29.86,10.0,NW,16.1,24.2,N/A,,Scattered Clouds,310,2014-01-04 22:35:00
3:55 PM,19.4,12.2,74,29.87,1.8,NNW,16.1,29.9,N/A,,Mostly Cloudy,340,2014-01-04 22:55:00
4:15 PM,17.6,10.4,73,29.88,0.5,NNW,18.4,25.3,N/A,,Overcast,340,2014-01-04 23:15:00
4:35 PM,17.6,6.8,63,29.90,2.5,WNW,10.4,-,N/A,,Overcast,290,2014-01-04 23:35:00
4:55 PM,17.6,5.0,58,29.91,10.0,West,5.8,-,N/A,,Mostly Cloudy,260,2014-01-04 23:55:00
5:15 PM,15.8,8.6,73,29.91,10.0,West,8.1,16.1,N/A,,Partly Cloudy,280,2014-01-05 00:15:00
5:35 PM,17.6,8.6,68,29.91,10.0,WNW,12.7,-,N/A,,Clear,300,2014-01-05 00:35:00
5:55 PM,17.6,3.2,53,29.92,10.0,NW,11.5,-,N/A,,Clear,310,2014-01-05 00:55:00
6:15 PM,17.6,1.4,49,29.93,10.0,WNW,11.5,-,N/A,,Clear,300,2014-01-05 01:15:00
6:35 PM,15.8,-2.2,45,29.95,10.0,North,5.8,-,N/A,,Clear,360,2014-01-05 01:35:00
7:15 PM,12.2,-4.0,48,29.97,10.0,NNE,3.5,-,N/A,,Clear,20,2014-01-05 02:15:00
7:35 PM,10.4,-2.2,57,29.97,10.0,Calm,Calm,-,N/A,,Clear,0,2014-01-05 02:35:00
7:55 PM,10.4,-5.8,48,29.98,10.0,Calm,Calm,-,N/A,,Clear,0,2014-01-05 02:55:00
8:15 PM,3.2,-11.2,51,29.98,10.0,Calm,Calm,-,N/A,,Clear,0,2014-01-05 03:15:00
8:35 PM,6.8,3.2,85,29.98,10.0,NNE,3.5,-,N/A,,Clear,30,2014-01-05 03:35:00
8:55 PM,6.8,-7.6,52,29.99,10.0,NE,5.8,-,N/A,,Clear,50,2014-01-05 03:55:00
9:15 PM,3.2,-5.8,66,29.99,10.0,Calm,Calm,-,N/A,,Clear,0,2014-01-05 04:15:00
9:35 PM,3.2,-9.4,56,29.99,9.0,NNE,3.5,-,N/A,,Clear,20,2014-01-05 04:35:00
9:55 PM,1.4,-7.6,66,30.00,9.0,Calm,Calm,-,N/A,,Clear,0,2014-01-05 04:55:00
10:15 PM,1.4,-11.2,56,30.00,8.0,Calm,Calm,-,N/A,,Clear,0,2014-01-05 05:15:00
10:35 PM,-0.4,-7.6,72,30.01,5.0,Calm,Calm,-,N/A,,Clear,0,2014-01-05 05:35:00
10:55 PM,1.4,-7.6,66,30.00,10.0,North,-9999.0,-,N/A,,Clear,0,2014-01-05 05:55:00
11:15 PM,1.4,-9.4,61,30.00,10.0,NE,3.5,-,N/A,,Clear,40,2014-01-05 06:15:00
11:35 PM,-0.4,-11.2,60,30.00,10.0,NNE,5.8,-,N/A,,Clear,30,2014-01-05 06:35:00
11:55 PM,-0.4,-5.8,78,30.00,10.0,Calm,Calm,-,N/A,,Clear,0,2014-01-05 06:55:00